sat.trackr.live / text

‹ back to catalog

STARLINK-11375 [DTC]

NORAD 61577 · 2024-187D

PAYLOAD ACTIVE UNKNOWN

§ Identity

Operator
Country
US
Launch date
2024-10-18
Launch site
AFETR
Launch vehicle
Mass (kg)
RCS (m²)

Purposes: comms

External: N2YO · Heavens-Above · Gunter

§ Orbital elements

Epoch: 2026-09-20T17:12:58.929408Z

Period
91.74 min
Inclination
53.1591°
Eccentricity
0.0000917
Mean motion
15.69709120 rev/d
Perigee alt
359.1 km
Apogee alt
360.3 km
Semi-major
6,737.9 km
B*
1.1745e-5
RAAN
54.6893°
Arg perigee
88.9117°
Mean anomaly
271.2006°
Rev number
11,138

§ Raw data

STARLINK-11375 [DTC]1 61577U 24187D   26263.71734872  .00000835  00000+0  11745-4 0  99932 61577  53.1591  54.6893 0000917  88.9117 271.2006 15.69709120111380

JSON: /api/v1/satellites/61577 · /tle

For live sub-satellite position, see the globe view (requires WebGL).

§ Visibility from observer

Set your observer location to see the next 7 days of passes ≥ 10°. The values pass through the URL so the page stays shareable.

No JS? Fill the form by hand. The geolocation button needs JavaScript.